Home > Time Zones > World Clock > Weather > Iran > Tehran > Past weeks

Flag for Iran Weather past 2 weeks in Tehran, Iran

Now
84 °F

Passing clouds.


Feels Like: 81 °F
Forecast: 71 / 87 °F
Wind: 5 mph from Northeast

Location: Tehran-Mehrabad

Current Time: May 25, 2015 at 12:37:09 AM

Latest Report: May 25, 2015 at 12:00 AM


Visibility: N/A

Pressure: 29.92 "Hg

Humidity: 13%

Dew point: 28 °F

Location of TehranLocation

Historic Weather in Tehran — Graph

°F

Tehran temperature yesterday

Maximum temperature yesterday: 90 °F (at 4:30 PM)
Minimum temperature yesterday: 73 °F (at 3:30 AM)
Average temperature yesterday: 81 °F

Past Weeks' High & Low Weather Summary

 TemperatureHumidityPressure
High93 °F (May 20, 5:30 PM)59% (May 11, 4:30 AM)30.15 "Hg (May 11, 4:30 AM)
Low59 °F (May 16, 6:30 AM)8% (May 13, 1:00 PM)29.83 "Hg (May 9, 10:30 PM)
Average77 °F22%29.99 "Hg
* Reported May 9 10:30 PM — May 24 11:00 PM, Tehran, Weather by CustomWeather, © 2015

Note: Actual official high and low records may vary slightly from our data, if they occured in-between our weather recording intervals... More about our weather records

Advertising

Tehran weather history for previous 24 hours

 ConditionsComfort  
Time TempWeatherWind HumidityBarometerVisibility
11:00 PM
Sun, May 24
86 °FPassing clouds.7 mph10%29.89 "HgN/A
10:30 PM84 °FPassing clouds.7 mph14%29.89 "HgN/A
10:00 PM84 °FPassing clouds.7 mph13%29.89 "HgN/A
9:30 PM84 °FScattered clouds.No wind12%29.89 "HgN/A
8:30 PM88 °FScattered clouds.7 mph10%29.89 "HgN/A
7:50 PM90 °FPassing clouds.12 mph9%29.89 "HgN/A
7:30 PM90 °FPassing clouds.12 mph9%29.89 "HgN/A
6:50 PM90 °FSunny.9 mph9%29.89 "Hg10 mi
6:30 PM90 °FSunny.9 mph9%29.89 "Hg10 mi
5:50 PM90 °FScattered clouds.5 mph9%29.92 "HgN/A
5:30 PM90 °FScattered clouds.5 mph9%29.92 "HgN/A
5:00 PM90 °FScattered clouds.5 mph9%29.92 "HgN/A
4:30 PM90 °FScattered clouds.No wind9%29.92 "HgN/A
4:00 PM88 °FScattered clouds.5 mph8%29.92 "HgN/A
3:30 PM88 °FScattered clouds.5 mph8%29.95 "HgN/A
3:00 PM86 °FScattered clouds.7 mph13%29.98 "HgN/A
2:30 PM86 °FScattered clouds.7 mph13%29.98 "HgN/A
2:00 PM84 °FScattered clouds.12 mph19%29.98 "HgN/A
1:30 PM84 °FScattered clouds.12 mph19%29.98 "HgN/A
1:00 PM84 °FScattered clouds.12 mph20%30.01 "HgN/A
12:30 PM82 °FScattered clouds.9 mph20%30.01 "HgN/A
12:00 PM82 °FPassing clouds.12 mph20%30.01 "HgN/A
11:30 AM81 °FPassing clouds.14 mph20%30.01 "HgN/A
11:00 AM81 °FSunny.9 mph23%30.04 "Hg10 mi
10:30 AM79 °FSunny.5 mph26%30.01 "Hg10 mi
10:00 AM77 °FSunny.5 mph28%30.01 "Hg10 mi
9:30 AM77 °FSunny.7 mph28%30.01 "Hg10 mi
9:00 AM75 °FSunny.7 mph31%30.01 "Hg10 mi
8:30 AM75 °FSunny.5 mph29%30.01 "Hg10 mi
7:30 AM73 °FSunny.5 mph31%29.98 "Hg10 mi
7:00 AM73 °FClear.7 mph31%29.98 "Hg10 mi
6:30 AM73 °FClear.5 mph31%29.98 "Hg10 mi
6:00 AM73 °FClear.7 mph31%29.98 "Hg10 mi
5:30 AM73 °FClear.9 mph31%29.95 "Hg10 mi
5:00 AM73 °FClear.7 mph33%29.95 "Hg10 mi
4:30 AM73 °FClear.9 mph33%29.95 "Hg10 mi
4:00 AM73 °FClear.7 mph31%29.95 "Hg10 mi
3:30 AM73 °FClear.5 mph31%29.95 "Hg10 mi
3:00 AM75 °FPassing clouds.9 mph29%29.95 "HgN/A
2:30 AM75 °FPassing clouds.9 mph29%29.95 "HgN/A
2:00 AM75 °FPassing clouds.7 mph31%29.95 "HgN/A
1:30 AM75 °FPassing clouds.9 mph31%29.95 "HgN/A
1:00 AM75 °FPassing clouds.9 mph34%29.95 "HgN/A
12:30 AM75 °FPassing clouds.9 mph34%29.95 "HgN/A
12:00 AM75 °FPassing clouds.12 mph31%29.95 "HgN/A
Weather by CustomWeather, © 2015

See weather overviewHow to use our weather pages